Torna al catalogo

FENGYUN 1C DEB

AttivoPO
NORAD 31615·DEBRIS·🇨🇳 China

Lanciato May 10, 1999 da Taiyuan Satellite Launch Center

Loading…

Prossimi Passaggi (prossime 24 ore)

TLE

AggiornatoSource: Space-Track

Epoca: Sep 14, 2026, 10:59 UTC

1 31615U 99025BZV 26257.45780453  .00006539  00000-0  17870-2 0  9997
2 31615  99.1429 331.7415 0154320 227.3136 131.4967 14.40807369692421

Traccia FENGYUN 1C DEB in tempo reale con AllMySat

Download on the App Store